Flag for Greece Weather past 2 weeks in Peristeri, Greece

Now
93 °F

Sunny.


Feels Like: 93 °F
Forecast: 79 / 95 °F
Wind: No wind

Location: Elefsis Airport

Current Time: Jul 31, 2015 at 10:49:18 AM

Latest Report: Jul 31, 2015 at 9:50 AM


Visibility: 10 mi

Pressure: 29.71 "Hg

Humidity: 34%

Dew point: 61 °F

Location of PeristeriLocation

Historic Weather in Peristeri — Graph

°F

Peristeri temperature yesterday

Maximum temperature yesterday: 100 °F (at 2:50 PM)
Minimum temperature yesterday: 77 °F (at 6:20 AM)
Average temperature yesterday: 89 °F

Past Weeks' High & Low Weather Summary

 TemperatureHumidityPressure
High100 °F (Jul 29, 1:20 PM)73% (Jul 25, 5:20 AM)30.01 "Hg (Jul 25, 5:20 AM)
Low70 °F (Jul 25, 4:20 AM)10% (Jul 21, 12:20 AM)29.68 "Hg (Jul 27, 2:50 PM)
Average86 °F36%29.81 "Hg
* Reported Jul 16 9:20 AM — Jul 31 9:20 AM, Peristeri, Weather by CustomWeather, © 2015

Note: Actual official high and low records may vary slightly from our data, if they occured in-between our weather recording intervals... More about our weather records

Advertising

Peristeri weather history for previous 24 hours

 ConditionsComfort  
Time TempWeatherWind HumidityBarometerVisibility
9:20 AM
Fri, Jul 31
91 °FSunny.No wind34%29.71 "Hg10 mi
8:50 AM88 °FSunny.No wind38%29.71 "Hg10 mi
8:20 AM88 °FSunny.No wind38%29.71 "Hg10 mi
6:20 AM77 °FClear.No wind57%29.68 "Hg10 mi
5:50 AM77 °FClear.No wind57%29.68 "Hg10 mi
5:20 AM79 °FClear.No wind54%29.68 "Hg10 mi
4:50 AM79 °FClear.No wind54%29.68 "Hg10 mi
4:20 AM79 °FClear.No wind54%29.68 "Hg10 mi
3:20 AM79 °FClear.No wind51%29.68 "Hg10 mi
2:50 AM79 °FClear.No wind51%29.71 "Hg10 mi
1:50 AM81 °FClear.No wind48%29.71 "Hg10 mi
1:20 AM82 °FClear.No wind48%29.71 "Hg10 mi
12:50 AM82 °FClear.No wind48%29.71 "Hg10 mi
12:20 AM84 °FClear.5 mph45%29.71 "Hg10 mi
11:50 PM
Thu, Jul 30
84 °FClear.5 mph45%29.71 "Hg10 mi
11:20 PM86 °FClear.3 mph49%29.71 "Hg10 mi
10:50 PM86 °FClear.3 mph49%29.71 "Hg10 mi
10:20 PM86 °FClear.3 mph46%29.71 "Hg10 mi
9:50 PM88 °FClear.3 mph43%29.71 "Hg10 mi
9:20 PM88 °FSunny.5 mph40%29.71 "Hg10 mi
8:50 PM88 °FSunny.5 mph40%29.71 "Hg10 mi
8:20 PM90 °FSunny.5 mph41%29.71 "Hg10 mi
7:50 PM91 °FSunny.5 mph34%29.68 "Hg10 mi
7:20 PM93 °FSunny.7 mph32%29.68 "Hg10 mi
6:50 PM93 °FSunny.8 mph32%29.68 "Hg10 mi
6:20 PM95 °FSunny.9 mph32%29.68 "Hg10 mi
5:50 PM95 °FSunny.9 mph32%29.68 "Hg10 mi
5:20 PM97 °FSunny.10 mph32%29.68 "Hg10 mi
4:50 PM100 °FSunny.12 mph25%29.68 "Hg10 mi
4:20 PM100 °FPassing clouds.12 mph22%29.68 "HgN/A
3:50 PM100 °FPassing clouds.12 mph22%29.68 "HgN/A
3:20 PM100 °FPassing clouds.12 mph22%29.68 "HgN/A
2:50 PM100 °FSunny.12 mph22%29.71 "Hg10 mi
2:20 PM99 °FSunny.12 mph25%29.68 "Hg10 mi
1:50 PM99 °FSunny.9 mph27%29.71 "Hg10 mi
1:20 PM99 °FSunny.8 mph29%29.71 "Hg10 mi
12:50 PM97 °FSunny.9 mph32%29.71 "Hg10 mi
12:20 PM97 °FSunny.9 mph30%29.71 "Hg10 mi
11:50 AM97 °FSunny.7 mph30%29.71 "Hg10 mi
11:20 AM95 °FSunny.5 mph30%29.71 "Hg10 mi
10:50 AM93 °FSunny.5 mph34%29.74 "Hg10 mi
10:20 AM91 °FSunny.No wind34%29.74 "Hg10 mi
Weather by CustomWeather, © 2015

See weather overviewHow to use our weather pages